Погода в Ланкаране

Погода в Ланкаране : погода сейчас, прогноз погоды и архив. Всё, что Вы хотите узнать о погоде в Ланкаране!

Поиск расширенной информации на нашем сайте:

Полезная информация: Brady хочет познакомиться - brady tls2200.

Другие новости

Новости СМИ2

Главная страница сайта

Новости сайта

02.10.2013

Напоминаем, что на нашем новом сайте вы можете получить высокодетализированные прогнозы погоды по пунктам России, СНГ и мира (включающие важные для авиации метеовеличины, такие как направление и скорость ветра, видимость, явления погоды, количество и форма облачности, нижняя и верхняя граница облачности), а также ознакомиться с разнообразными материалами по авиационной метеорологии и подборкой полезных ссылок на эту тему.

Сайт Метеоцентр.Азия посвящён разработке технологий оптимизации авиаметеорологического обслуживания, включая проектирование и перспективное создание нескольких автоматизированных авиаметеорологических систем:
- система выпуска высокодетальных прогностических карт явлений погоды для нижнего воздушного пространства по России и ближнему зарубежью;
- система верификации прогнозов TAF (выпускаемых синоптиками официальных АМСГ РФ и ближнего зарубежья) и AUTOTAF (выпускаемых сайтом Метеоцентр.Азия) - выявление ошибок, онлайн-сопоставление с фактической погодой METAR, автоматическое внесение коррективов в прогнозы при резком отклонении фактической погоды от прогноза, подсчёт оправдываемости прогнозов по элементам и в целом;
- система обработки, анализа и отображения авиаметеорологической информации для применения провайдерами метеорологической информации.

Рекомендуем: готовые проекты бань, проекты деревянных бань

Погода в Ланкаране - сегодня

Время (UTC), дата Ветер
(°,м/с) 
Видим.   Явления Облачность Т
(°С)
Тd
(°С)
f(%) Тe
(°С)
Pmin
(гПа)
dP
(гПа)
Po
(мм)
O2
(г/м3)
Тmin Tmax R s Состояние
почвы
12 25.02.17 110 (В) 20000 м    ясно 
+13.2 +2.9 50 +14  1020.3  -2.2  766  294           
15 25.02.17 090 (В) 10 км    ясно 
+9.1 +5.6 79 +10  1019.4  -0.9  766  298           
18 25.02.17 180 (Ю) 4000 м    ясно 
+6.7 +4.9 88 +8  1018.6  -0.8  765  300           
21 25.02.17 320 (СЗ) 4000 м    ясно 
+3.1 +1.8 91 +4  1017  -1.6  764  304           
00 26.02.17 200 (Ю) 4000 м    ясно 
+3.3 +0.1 80 +4  1015  -2  762  304           
03 26.02.17 230 (ЮЗ) 4000 м    ясно 
+5.1 -1.8 61 +6  1014.8  -0.2  762  302           
06 26.02.17 160 (Ю) 4000 м    ясно 
+16.2 +1.1 36 +18  1016.3  1.5  763  290         
09 26.02.17 290 (З) 20000 м    ясно 
+23 -7.1 13 +23  1016.2  -0.1  763  284           
12 26.02.17 110 (В) 20000 м    4/4 600 м средняя 
[Sc|Ac lent]
+12.6 +5.3 61 +13  1018.5  2.3  765  294           
15 26.02.17 020 (С) 4000 м    ясно 
+7.6 +1.7 66 +9  1026  7.5  771  302           
18 26.02.17 090 (В) 4000 м    10/10 600 м 
[Sc]
+6.9 +0.3 63 +7  1029.7  3.7  773  304           
21 26.02.17 110 (В) 4000 м    10/10 600 м 
[Sc]
+6.4 +1.4 70 +7  1030.7  774  305           
00 27.02.17 160 (Ю) 4000 м    6/0 средняя 
[Ac lent]
+5.9 +3 82 +7  1029.7  -1  773  305           
03 27.02.17 140 (ЮВ) 4000 м    10/10 600 м 
[Sc]
+6.2 +2.6 78 +7  1029.6  -0.1  773  304           
06 27.02.17 140 (ЮВ) 10 км    10/10 600 м 
[Sc]
+7.2 +3.4 77 +8  1029.9  0.3  774  303         
09 27.02.17 160 (Ю) 10 км    10/10 600 м 
[Sc]
+8 +3.6 74 +9  1028.4  -1.5  772  302           
12 27.02.17 110 (В) 10 км    10/10 600 м 
[Sc]
+8.4 +4.3 75 +9  1025.8  -2.6  770  301           
15 27.02.17 140 (ЮВ) 4000 м    10/10 600 м 
[Sc]
+7.6 +5.1 84 +9  1025.1  -0.7  770  301           
18 27.02.17 140 (ЮВ) 4000 м    ясно 
+7.2 +5.5 89 +8  1024.7  -0.4  770  301           
21 27.02.17 230 (ЮЗ) 4000 м    ясно 
+4.3 +2.8 90 +5  1023.4  -1.9  768  304           
00 28.02.17 340 (С) 4000 м    ясно 
+0.5 -0.3 94 +1  1028.8  -0.6  768  309           
03 28.02.17 160 (Ю) 4000 м    ясно 
+1.1 +0.6 96 +2  1023.5  0.7  769  308           
06 28.02.17 340 (С) 10 км    6/6 600 м средняя 
[Sc|Ac lent]
+6.7 +4.4 85 +8  1025.9  2.4  771  302         
09 28.02.17 050 (СВ) 20000 м    ясно 
+11 +4.6 65 +12  1025.6  -0.3  770  298           
12 28.02.17 140 (ЮВ) 20000 м    3/0 средняя 
[Ac lent]
+10.9 +5.8 71 +12  1025  -0.6  770  297           
Время (UTC), дата Ветер
(°,м/с) 
Видим.   Явления Облачность Т
(°С)
Тd
(°С)
f(%) Тe
(°С)
Pmin
(гПа)
dP
(гПа)
Po
(мм)
O2
(г/м3)
Тmin Tmax R s Состояние
почвы

Для получения пояснительной информации подведите курсор к названию столбца.

ПОГОДА в Ланкаране - архив

Всё, что Вы хотите узнать о погоде в Ланкаране - удобно и подробно!

Выберите нужную дату (начиная с 1 января 2015* года) и нажмите кнопку "Найти".
Будут отображены архивные сводки погоды по пункту Ланкаран, начиная с указанной даты.


Отображать данные в формате CSV (для использования в таблицах Excel)


Внимание! Наш архив погоды предназначен исключительно для личного некоммерческого использования в познавательных целях. Если Вам необходимы официальные справки о состоянии погоды (для производственных, юридических, коммерческих и т.п. целей), обращайтесь в органы Росгидромета.

*Примечание: данная дата относится к архиву по метеостанциям СССР (Россия, СНГ, Балтия).
Архив по метеостанциям Зарубежной Европы и Азии (кроме Китая) хранится 10 дней, по другим регионам земного шара (Китай, Африка, Америка, Австралия, Океания) - 1 день.

Ланкаран - район местоположения метеостанции


Название, широта, долгота, высота метеостанции:
Ланкаран (аэропорт) 38.7°ш. 48.8°д. -12 м над ур. моря [Азербайджан]

Дополнительная информация

В oтличие oт бoльшинства пoгoдных сайтoв мы публикуем пoдрoбную метеoинфoрмацию в детальнoм прoфессиoнальнoм фoрмате.

Характеристики температуры и влажнoсти вoздуха измеряются на высoте 2 м в тени вдали oт зданий и деревьев.
Скoрoсть ветра измеряется на высoте 10 м (на урoвне рoста челoвека скoрoсть ветра ниже в 1.5-2 раза). Если метеoстанция нахoдится в гoрoде или в лесу, тo скoрoсть ветра занижена на 2-4 м/с пo сравнению с oткрытым местoм. Скoрoсть ветра над акватoриями крупных рек и oзёр, а также на вершинах хoлмoв на 2-5 м/с выше, чем в oбычных услoвиях.
Атмoсфернoе давление в разных тoчках местнoсти мoжет значительнo oтличаться oт давления на метеoстанции, в зависимoсти oт услoвий рельефа (при пoдъёме на 10 м давление пoнижается примернo на 1 мм рт.ст.).